カタログに戻る

COSMOS 1375 DEB

運用中LEO
NORAD 18560·DEBRIS·🇷🇺 Russia

打ち上げ Jun 6, 1982 から Plesetsk Cosmodrome

Loading…

次のパス (今後24時間)

TLE

最新Source: Space-Track

元期: Sep 14, 2026, 14:17 UTC

1 18560U 82055BH  26257.59528045  .00000036  00000-0  13022-3 0  9990
2 18560  65.8297 240.5603 0043499 349.8418 113.2853 13.70080419950645

AllMySatでCOSMOS 1375 DEBをリアルタイム追跡

Download on the App Store